Weather History for KLWB - January, 2007

Change the Weather History Date:

Monday, January 1, 2007

  Actual Average Record
Temperature  
Mean Temperature 46 °F 29 °F  
Max Temperature 55 °F 38 °F 63 °F (1985)
Min Temperature 35 °F 19 °F 4 °F (1977)
Degree Days  
Heating Degree Days 19    
Month to date heating degree days  
Since 1 July heating degree days  
Cooling Degree Days 0    
Month to date cooling degree days  
Year to date cooling degree days  
Moisture  
Dew Point 43 °F    
Average Humidity 86    
Maximum Humidity 100    
Minimum Humidity 54    
Precipitation  
Precipitation 0.00 in - 0.07 in (2012)
Snow  
Snow 0.00 in - - ()
Month to date snowfall  
Since 1 July snowfall  
Snow Depth -    
Sea Level Pressure  
Sea Level Pressure 29.92 in    
Wind  
Wind Speed 4 mph (WNW)    
Max Wind Speed 17 mph    
Max Gust Speed 26 mph    
Visibility 6 miles    
Events Fog , Rain    
T = Trace of Precipitation, MM = Missing Value Source: NWS Daily Summary

Daily Weather History Graph

Daily Weather History Graph

Search for Another Location

Airport or City:

Trip Planner

Search our weather history database for the weather conditions in past years. The results will help you decide how hot, cold, wet, or windy it might be!

Date:

Astronomy

Jan. 01, 2007 Rise Set
Actual Time 7:37 AM EST 5:13 PM EST
Civil Twilight 7:07 AM EST 5:42 PM EST
Nautical Twilight 6:35 AM EST 6:15 PM EST
Astronomical Twilight 6:03 AM EST 6:47 PM EST
Moon 3:11 PM EST (1/1) 6:00 AM EST (1/1)
Length of Visible Light 10h 34m
Length of Day
9h 35m
Waxing Gibbous, 96% of the Moon is Illuminated
Jan 1
Waxing Gibbous
Jan 3
Full
Jan 11
Last Quarter
Jan 18
New
Jan 25
First Quarter

Hourly Weather History & Observations

Time (EST) Temp. Windchill Dew Point Humidity Pressure Visibility Wind Dir Wind Speed Gust Speed Precip Events Conditions
12:02 AM 48.2 °F - 48.2 °F 100% 29.98 in 5.0 mi Calm Calm - N/A Rain Light Rain
12:23 AM 48.2 °F - 48.2 °F 100% 29.98 in 10.0 mi Calm Calm - N/A Rain Rain
12:42 AM 48.2 °F - 48.2 °F 100% 29.96 in 5.0 mi NNE 5.8 mph - N/A Rain Rain
1:02 AM 48.2 °F - 48.2 °F 100% 29.96 in 5.0 mi North 3.5 mph - N/A Rain Rain
1:22 AM 48.2 °F - 48.2 °F 100% 29.96 in 5.0 mi North 4.6 mph - N/A Rain Rain
1:44 AM 48.2 °F - 48.2 °F 100% 29.97 in 7.0 mi Calm Calm - N/A Rain Light Rain
2:04 AM 48.2 °F - 48.2 °F 100% 29.96 in 5.0 mi East 3.5 mph - N/A   Overcast
2:22 AM 48.2 °F - 48.2 °F 100% 29.96 in 10.0 mi Calm Calm - N/A   Overcast
2:42 AM 48.2 °F - 48.2 °F 100% 29.95 in 7.0 mi Calm Calm - N/A   Drizzle
3:02 AM 48.2 °F - 48.2 °F 100% 29.94 in 5.0 mi Calm Calm - N/A   Light Drizzle
3:22 AM 48.2 °F - 48.2 °F 100% 29.93 in 7.0 mi NNE 4.6 mph - N/A   Overcast
4:02 AM 46.4 °F - 46.4 °F 100% 29.92 in 5.0 mi Calm Calm - N/A   Overcast
4:22 AM 46.4 °F 45.2 °F 46.4 °F 100% 29.92 in 4.0 mi ENE 3.5 mph - N/A   Overcast
4:42 AM 46.4 °F - 46.4 °F 100% 29.91 in 1.5 mi Calm Calm - N/A   Overcast
5:02 AM 46.4 °F - 46.4 °F 100% 29.92 in 0.8 mi Calm Calm - N/A   Overcast
5:22 AM 46.4 °F - 46.4 °F 100% 29.92 in 0.2 mi Calm Calm - N/A Fog Fog
5:47 AM 44.6 °F - 44.6 °F 100% 29.92 in 0.2 mi Calm Calm - N/A Fog Fog
6:22 AM 44.6 °F - 44.6 °F 100% 29.92 in 0.5 mi Calm Calm - N/A Fog Fog
6:42 AM 44.6 °F - 44.6 °F 100% 29.92 in 0.5 mi Calm Calm - N/A Fog Fog
7:02 AM 44.6 °F - 44.6 °F 100% 29.92 in 2.5 mi Calm Calm - N/A   Overcast
7:22 AM 44.6 °F - 44.6 °F 100% 29.92 in 1.0 mi Calm Calm - N/A   Overcast
8:02 AM 46.4 °F - 46.4 °F 100% 29.92 in 0.2 mi Calm Calm - N/A Fog Fog
8:22 AM 46.4 °F - 46.4 °F 100% 29.92 in 0.2 mi Calm Calm - N/A Fog Fog
8:42 AM 46.4 °F - 46.4 °F 100% 29.92 in 0.2 mi Calm Calm - N/A Fog Fog
9:02 AM 46.4 °F - 46.4 °F 100% 29.92 in 0.2 mi Calm Calm - N/A Fog Fog
9:24 AM 46.4 °F - 46.4 °F 100% 29.91 in 0.2 mi Calm Calm - N/A Fog Fog
9:44 AM 46.4 °F - 46.4 °F 100% 29.91 in 0.2 mi Calm Calm - N/A Fog Fog
10:02 AM 46.4 °F 45.2 °F 46.4 °F 100% 29.91 in 0.2 mi SSW 3.5 mph - N/A Fog Fog
10:22 AM 46.4 °F 45.2 °F 46.4 °F 100% 29.91 in 0.5 mi SSW 3.5 mph - N/A Fog Fog
10:42 AM 48.2 °F - 48.2 °F 100% 29.90 in 2.5 mi South 4.6 mph - N/A   Overcast
11:02 AM 50.0 °F - 50.0 °F 100% 29.89 in 10.0 mi SSW 5.8 mph - N/A   Mostly Cloudy
11:22 AM 51.8 °F - 46.4 °F 82% 29.88 in 10.0 mi SW 9.2 mph - N/A   Scattered Clouds
11:42 AM 53.6 °F - 46.4 °F 77% 29.87 in 10.0 mi SW 12.7 mph 16.1 mph N/A   Clear
12:02 PM 53.6 °F - 46.4 °F 77% 29.87 in 10.0 mi SW 9.2 mph - N/A   Clear
12:23 PM 53.6 °F - 44.6 °F 72% 29.86 in 10.0 mi West 9.2 mph - N/A   Scattered Clouds
12:44 PM 53.6 °F - 44.6 °F 72% 29.85 in 10.0 mi West 9.2 mph - N/A   Mostly Cloudy
1:02 PM 55.4 °F - 44.6 °F 67% 29.84 in 10.0 mi West 8.1 mph - N/A   Mostly Cloudy
1:22 PM 53.6 °F - 44.6 °F 72% 29.84 in 10.0 mi West 8.1 mph - N/A   Scattered Clouds
1:42 PM 53.6 °F - 44.6 °F 72% 29.83 in 10.0 mi WSW 8.1 mph - N/A   Clear
2:03 PM 55.4 °F - 39.2 °F 54% 29.82 in 10.0 mi West 17.3 mph 21.9 mph N/A   Clear
2:22 PM 55.4 °F - 39.2 °F 54% 29.83 in 10.0 mi West 15.0 mph 23.0 mph N/A   Clear
2:42 PM 55.4 °F - 39.2 °F 54% 29.83 in 10.0 mi West 13.8 mph 19.6 mph N/A   Clear
3:04 PM 53.6 °F - 39.2 °F 58% 29.84 in 10.0 mi West 8.1 mph - N/A   Scattered Clouds
3:24 PM 53.6 °F - 39.2 °F 58% 29.85 in 10.0 mi NW 12.7 mph 17.3 mph N/A   Mostly Cloudy
3:42 PM 51.8 °F - 39.2 °F 62% 29.86 in 10.0 mi NW 10.4 mph 16.1 mph N/A   Overcast
4:02 PM 51.8 °F - 39.2 °F 62% 29.87 in 10.0 mi WNW 6.9 mph - N/A   Overcast
4:24 PM 50.0 °F - 39.2 °F 66% 29.88 in 10.0 mi NW 10.4 mph 18.4 mph N/A   Overcast
4:42 PM 48.2 °F - 37.4 °F 66% 29.90 in 10.0 mi WNW 8.1 mph - N/A   Overcast
5:02 PM 46.4 °F 41.9 °F 39.2 °F 76% 29.92 in 10.0 mi NW 9.2 mph - N/A   Overcast
5:22 PM 46.4 °F 40.1 °F 37.4 °F 71% 29.93 in 10.0 mi NW 15.0 mph 21.9 mph N/A   Overcast
6:02 PM 44.6 °F 39.7 °F 35.6 °F 71% 29.94 in 10.0 mi WNW 9.2 mph - N/A   Overcast
6:24 PM 42.8 °F 36.6 °F 37.4 °F 81% 29.96 in 7.0 mi West 11.5 mph 18.4 mph N/A   Light Drizzle
6:42 PM 42.8 °F 36.6 °F 37.4 °F 81% 29.98 in 10.0 mi WNW 11.5 mph 21.9 mph N/A   Overcast
7:02 PM 41.0 °F 33.5 °F 35.6 °F 81% 29.99 in 10.0 mi WNW 13.8 mph 18.4 mph N/A   Overcast
7:22 PM 41.0 °F 34.7 °F 35.6 °F 81% 30.00 in 10.0 mi WNW 10.4 mph 25.3 mph N/A   Overcast
7:42 PM 39.2 °F 30.2 °F 35.6 °F 87% 30.02 in 10.0 mi NW 17.3 mph 25.3 mph N/A   Overcast
8:04 PM 39.2 °F 32.0 °F 33.8 °F 81% 30.03 in 10.0 mi WNW 11.5 mph 26.5 mph N/A   Overcast
8:24 PM 37.4 °F 28.5 °F 33.8 °F 87% 30.05 in 10.0 mi West 15.0 mph 24.2 mph N/A   Overcast
9:04 PM 37.4 °F 28.5 °F 32.0 °F 81% 30.07 in 10.0 mi NW 15.0 mph 20.7 mph N/A   Overcast
9:22 PM 37.4 °F 30.8 °F 32.0 °F 81% 30.07 in 10.0 mi West 9.2 mph 17.3 mph N/A   Overcast
9:43 PM 35.6 °F 26.6 °F 30.2 °F 81% 30.08 in 10.0 mi West 13.8 mph 20.7 mph N/A   Overcast
10:02 PM 35.6 °F 28.0 °F 30.2 °F 81% 30.09 in 10.0 mi WNW 10.4 mph 17.3 mph N/A   Overcast
10:23 PM 35.6 °F 27.1 °F 30.2 °F 81% 30.10 in 10.0 mi WNW 12.7 mph 20.7 mph N/A   Overcast
10:42 PM 35.6 °F 26.6 °F 30.2 °F 81% 30.11 in 10.0 mi WNW 13.8 mph 24.2 mph N/A   Overcast
11:02 PM 33.8 °F 24.3 °F 30.2 °F 87% 30.11 in 10.0 mi WNW 13.8 mph 28.8 mph N/A   Overcast
11:22 PM 33.8 °F 24.8 °F 30.2 °F 87% 30.12 in 10.0 mi WNW 12.7 mph 18.4 mph N/A   Overcast
11:42 PM 33.8 °F 25.8 °F 30.2 °F 87% 30.13 in 10.0 mi WNW 10.4 mph 17.3 mph N/A   Overcast